Tracking 29892 objects as of 21-Nov-2024
HD Live streaming from Space Station
objects crossing your sky now

DELTA 1 R/B

Track DELTA 1 R/B now!
10-day predictions


NORAD ID: 7616
Int'l Code: 1975-004B
Perigee: 745.8 km
Apogee: 1,016.0 km
Inclination: 97.8 °
Period: 102.4 minutes
Semi major axis: 7251 km
RCS: 5.2306 m2 (large)
Launch date: January 22, 1975
Source: United States (US)
Launch site: AIR FORCE WESTERN TEST RANGE (AFWTR)

Note: This is a ROCKET BODY
Your satellite tracking list
Your tracking list is empty




NASA's NSSDC Master Catalog

Two Line Element Set (TLE):
1 07616U 75004B   24325.80400545  .00000163  00000-0  10361-3 0  9992
2 07616  97.7578  90.6694 0186284   8.2328 352.1828 14.05809261539823
Source of the keplerian elements: AFSPC